Flag for Sweden Weather past 2 weeks in Västerås, Sweden

Now
55 °F

Sunny.


Feels Like: 52 °F
Forecast: 34 / 53 °F
Wind: 14 mph from Southwest

Location: Vasteras / Hasslo

Current Time: Apr 26, 2015 at 2:28:28 PM

Latest Report: Apr 26, 2015 at 1:50 PM


Visibility: 10 mi

Pressure: 29.56 "Hg

Humidity: 38%

Dew point: 30 °F

Location of VästeråsLocation

Historic Weather in Västerås — Graph

°F

Västerås temperature yesterday

Maximum temperature yesterday: 59 °F (at 1:50 PM)
Minimum temperature yesterday: 37 °F (at 4:50 AM)
Average temperature yesterday: 50 °F

Past Weeks' High & Low Weather Summary

 TemperatureHumidityPressure
High64 °F (Apr 19, 4:50 PM)100% (Apr 12, 3:50 AM)30.27 "Hg (Apr 12, 3:50 AM)
Low27 °F (Apr 18, 3:50 AM)16% (Apr 20, 5:20 PM)29.36 "Hg (Apr 15, 7:50 PM)
Average47 °F59%29.83 "Hg
* Reported Apr 11 1:20 PM — Apr 26 1:20 PM, Västerås, Weather by CustomWeather, © 2015

Note: Actual official high and low records may vary slightly from our data, if they occured in-between our weather recording intervals... More about our weather records

Advertising

Västerås weather history for previous 24 hours

 ConditionsComfort  
Time TempWeatherWind HumidityBarometerVisibility
1:20 PM
Sun, Apr 26
54 °FPassing clouds.13 mph41%29.56 "HgN/A
12:50 PM54 °FSunny.13 mph47%29.56 "Hg10 mi
12:20 PM52 °FPassing clouds.13 mph47%29.56 "HgN/A
11:50 AM54 °FPassing clouds.13 mph44%29.56 "HgN/A
11:20 AM52 °FPassing clouds.13 mph50%29.56 "HgN/A
10:50 AM52 °FSunny.13 mph50%29.56 "Hg10 mi
10:20 AM52 °FPassing clouds.12 mph50%29.53 "HgN/A
9:50 AM50 °FCool.13 mph62%29.53 "HgN/A
9:20 AM50 °FCool.14 mph67%29.53 "HgN/A
8:50 AM50 °FCool.14 mph67%29.53 "HgN/A
8:20 AM50 °FCool.13 mph76%29.53 "HgN/A
7:50 AM50 °FScattered clouds.14 mph76%29.50 "HgN/A
7:20 AM50 °FScattered clouds.8 mph88%29.50 "HgN/A
6:50 AM50 °FFog.9 mph88%29.50 "Hg5 mi
6:20 AM50 °FFog.8 mph88%29.50 "Hg4 mi
5:50 AM50 °FFog.8 mph88%29.50 "Hg3 mi
5:20 AM48 °FFog.8 mph94%29.50 "Hg4 mi
4:50 AM48 °FFog.9 mph94%29.50 "Hg3 mi
4:20 AM48 °FLight rain. Passing clouds.10 mph94%29.50 "Hg2 mi
3:50 AM48 °FFog.8 mph100%29.50 "Hg2 mi
3:20 AM48 °FFog.5 mph100%29.50 "Hg2 mi
2:50 AM48 °FPassing clouds.7 mph94%29.50 "Hg2 mi
2:20 AM48 °FPassing clouds.6 mph100%29.50 "Hg2 mi
1:50 AM48 °FLight rain. Overcast.7 mph94%29.50 "Hg2 mi
1:20 AM48 °FDrizzle. Overcast.6 mph94%29.50 "Hg3 mi
12:50 AM48 °FDrizzle. Overcast.6 mph94%29.50 "Hg4 mi
12:20 AM48 °FDrizzle. Overcast.6 mph94%29.53 "Hg4 mi
11:20 PM
Sat, Apr 25
50 °FPassing clouds.7 mph82%29.53 "HgN/A
10:50 PM50 °FLight rain. Passing clouds.7 mph82%29.53 "HgN/A
10:20 PM50 °FCool.7 mph76%29.53 "HgN/A
9:50 PM52 °FCool.8 mph77%29.53 "HgN/A
9:20 PM52 °FCool.8 mph77%29.53 "HgN/A
8:50 PM54 °FScattered clouds.10 mph72%29.53 "HgN/A
8:20 PM54 °FScattered clouds.9 mph72%29.53 "HgN/A
7:50 PM55 °FScattered clouds.12 mph67%29.53 "HgN/A
7:20 PM55 °FCool.9 mph63%29.53 "HgN/A
6:50 PM57 °FPassing clouds.10 mph59%29.53 "HgN/A
6:20 PM57 °FRefreshingly cool.9 mph59%29.53 "HgN/A
5:50 PM59 °FPassing clouds.9 mph59%29.53 "HgN/A
5:20 PM59 °FPassing clouds.13 mph55%29.56 "HgN/A
4:50 PM57 °FPassing clouds.13 mph63%29.56 "HgN/A
4:20 PM55 °FPartly sunny.13 mph63%29.56 "HgN/A
3:50 PM55 °FPartly sunny.15 mph63%29.56 "HgN/A
3:20 PM57 °FPassing clouds.15 mph59%29.56 "HgN/A
2:50 PM59 °FRefreshingly cool.13 mph55%29.59 "HgN/A
2:20 PM59 °FPassing clouds.16 mph51%29.59 "HgN/A
Weather by CustomWeather, © 2015

See weather overviewHow to use our weather pages